Torna al catalogo

STARLINK-37621

AttivoComunicazioniVLEO
NORAD 69830·PAYLOAD·🇺🇸 United States

Lanciato Jul 5, 2026 da Cape Canaveral Space Force Station

Loading…

Prossimi Passaggi (prossime 24 ore)

TLE

AggiornatoSource: CelesTrak SupGP

Epoca: Sep 14, 2026, 15:46 UTC

1 69830C 26154M   26257.65743056 -.00004652  00000+0 -13750-3 0  2576
2 69830  53.1600 359.0921 0001211  64.8069 182.4080 15.34382384    15

Traccia STARLINK-37621 in tempo reale con AllMySat

Download on the App Store